This is the latest recevied weather packets stored in our database for station/object KC0FGX-1. If no packets are shown the sender has not sent any weather packets the latest 10 day(s).
| Time | Temp. | Humidity | Pressure | Rain* | Wind** | Luminosity | Snow |
|---|---|---|---|---|---|---|---|
| 1777614413 | 5.56° C | 76% | 1016.7 hPa | 0 mm | - | - | - |
| 1777613825 | 5.56° C | 76% | 1016.8 hPa | 0 mm | - | - | - |
| 1777612824 | 6.11° C | 73% | 1016.7 hPa | 0 mm | - | - | - |
| 1777612613 | 6.11° C | 73% | 1016.7 hPa | 0 mm | - | - | - |
| 1777611824 | 6.11° C | 72% | 1016.5 hPa | 0 mm | - | - | - |
| 1777610825 | 6.67° C | 70% | 1016.4 hPa | 0 mm | - | - | - |
| 1777610813 | 6.67° C | 70% | 1016.4 hPa | 0 mm | - | - | - |
| 1777609824 | 7.22° C | 69% | 1016.5 hPa | 0 mm | - | - | - |
| 1777609013 | 7.22° C | 69% | 1016.4 hPa | 0 mm | - | - | - |
| 1777608825 | 7.22° C | 69% | 1016.3 hPa | 0 mm | - | - | - |
| 1777607825 | 7.78° C | 69% | 1016.3 hPa | 0 mm | - | - | - |
| 1777607213 | 7.78° C | 70% | 1016.3 hPa | 0 mm | - | - | - |
| 1777606825 | 7.22° C | 72% | 1016.3 hPa | 0 mm | - | - | - |
| 1777605826 | 5.56° C | 84% | 1016.2 hPa | 0 mm | - | - | - |
| 1777605413 | 6.11° C | 82% | 1016.1 hPa | 0 mm | - | - | - |
| 1777604825 | 6.11° C | 78% | 1016 hPa | 0 mm | - | - | - |
| 1777603824 | 7.22° C | 75% | 1016 hPa | 0 mm | - | - | - |
| 1777603614 | 7.78° C | 73% | 1015.9 hPa | 0 mm | - | - | - |
| 1777602825 | 7.78° C | 71% | 1015.8 hPa | 0 mm | - | - | - |
| 1777601813 | 8.89° C | 67% | 1015.6 hPa | 0 mm | - | - | - |
| 1777587412 | 13.33° C | 79% | 1012.9 hPa | 0 mm | - | - | - |
| 1777583812 | 14.44° C | 83% | 1012.6 hPa | 2.29 mm | - | - | - |
| 1777582823 | 13.33° C | 85% | 1012.7 hPa | 2.29 mm | - | - | - |
| 1777581823 | 13.33° C | 79% | 1013 hPa | 2.29 mm | - | - | - |
| 1777580212 | 14.44° C | 72% | 1012.5 hPa | 1.27 mm | - | - | - |
* Rain latest hour (hover to see other rain measurements)
** Current wind speed in m/s (hover to see current wind gust speed)